User: anonymous   Login
Location: Unspecified
(0.0000°N, 0.0000°E)
Time: 10:10:39
(UTC+00:00)
Language:

Sedsat-1 - Orbit

View from above orbital plane
View from above orbital plane
View from above satellite
View from above satellite

Ground track
Ground track

The orbit data is extracted from the following two-line orbital elements,

1 25509U 98061B   21169.07165545  .00000034  00000-0 -77139-5 0  9997
2 25509  31.4348  51.3646 0346553 229.0460 127.9681 14.30471937183601
Epoch (UTC): 18 June 2021 01:43:11
Eccentricity: 0.0346553
inclination: 31.4348°
perigee height: 542 km
apogee height: 1038 km
right ascension of ascending node: 51.3646°
argument of perigee: 229.0460°
revolutions per day: 14.30471937
mean anomaly at epoch: 127.9681°
orbit number at epoch: 18360

The dashed part of the orbit path shows where the satellite is in the earth's shadow,  

DLR